Time,TemperatureF,DewpointF,PressureIn,WindDirection,WindDirectionDegrees,WindSpeedMPH,WindSpeedGustMPH,Humidity,HourlyPrecipIn,Conditions,Clouds,dailyrainin,SoftwareType,DateUTC
2013-02-10 00:02:00,65.7,58.3,30.04,SE,135,2.7,-999.0,77,-99.99,,,0.00,Acu-Link.com,2013-02-10 05:02:00,
2013-02-10 00:17:00,65.5,58.1,30.05,SE,135,4.7,-999.0,77,-99.99,,,0.00,Acu-Link.com,2013-02-10 05:17:00,
2013-02-10 00:32:00,65.1,57.7,30.05,ESE,112,4.7,-999.0,77,-99.99,,,0.00,Acu-Link.com,2013-02-10 05:32:00,
2013-02-10 00:48:00,64.9,57.9,30.04,South,180,1.1,-999.0,78,-99.99,,,0.00,Acu-Link.com,2013-02-10 05:48:00,
2013-02-10 01:03:00,64.9,57.9,30.05,ESE,112,3.7,-999.0,78,-99.99,,,0.00,Acu-Link.com,2013-02-10 06:03:00,
2013-02-10 01:18:00,64.6,57.9,30.04,South,180,2.2,-999.0,79,-99.99,,,0.00,Acu-Link.com,2013-02-10 06:18:00,
2013-02-10 01:34:00,64.6,57.6,30.04,SE,135,3.2,-999.0,78,-99.99,,,0.00,Acu-Link.com,2013-02-10 06:34:00,
2013-02-10 01:49:00,64.4,57.4,30.04,ENE,67,2.7,-999.0,78,-99.99,,,0.00,Acu-Link.com,2013-02-10 06:49:00,
2013-02-10 02:04:00,64.4,57.0,30.03,ESE,112,3.2,-999.0,77,-99.99,,,0.00,Acu-Link.com,2013-02-10 07:04:00,
2013-02-10 02:19:00,64.4,57.0,30.03,ESE,112,1.7,-999.0,77,-99.99,,,0.00,Acu-Link.com,2013-02-10 07:19:00,
2013-02-10 02:35:00,64.0,57.0,30.04,ESE,112,2.2,-999.0,78,-99.99,,,0.00,Acu-Link.com,2013-02-10 07:35:00,
2013-02-10 02:50:00,63.9,56.9,30.03,ESE,112,2.7,-999.0,78,-99.99,,,0.00,Acu-Link.com,2013-02-10 07:50:00,
2013-02-10 03:05:00,64.2,57.2,30.02,SE,135,2.2,-999.0,78,-99.99,,,0.00,Acu-Link.com,2013-02-10 08:05:00,
2013-02-10 03:20:00,64.2,56.8,30.03,ESE,112,5.3,-999.0,77,-99.99,,,0.00,Acu-Link.com,2013-02-10 08:20:00,
2013-02-10 03:36:00,64.4,57.0,30.02,ESE,112,0.0,-999.0,77,-99.99,,,0.00,Acu-Link.com,2013-02-10 08:36:00,
2013-02-10 03:51:00,64.4,57.4,30.03,ESE,112,2.2,-999.0,78,-99.99,,,0.00,Acu-Link.com,2013-02-10 08:51:00,
2013-02-10 04:19:00,64.4,57.4,30.03,ESE,112,5.8,-999.0,78,-99.99,,,0.00,Acu-Link.com,2013-02-10 09:19:00,
2013-02-10 04:34:00,64.2,56.8,30.03,East,90,0.0,-999.0,77,-99.99,,,0.00,Acu-Link.com,2013-02-10 09:34:00,
2013-02-10 04:50:00,64.4,57.0,30.02,ESE,112,4.7,-999.0,77,-99.99,,,0.00,Acu-Link.com,2013-02-10 09:50:00,
2013-02-10 05:05:00,64.4,57.0,30.03,SSE,157,2.7,-999.0,77,-99.99,,,0.00,Acu-Link.com,2013-02-10 10:05:00,
2013-02-10 05:20:00,64.6,56.5,30.03,North,0,5.3,-999.0,75,-99.99,,,0.00,Acu-Link.com,2013-02-10 10:20:00,
2013-02-10 05:35:00,64.6,56.5,30.04,NW,315,2.2,-999.0,75,-99.99,,,0.00,Acu-Link.com,2013-02-10 10:35:00,
2013-02-10 05:51:00,64.4,56.3,30.04,SE,135,4.2,-999.0,75,-99.99,,,0.00,Acu-Link.com,2013-02-10 10:51:00,
2013-02-10 06:06:00,64.0,55.9,30.05,SE,135,0.0,-999.0,75,-99.99,,,0.00,Acu-Link.com,2013-02-10 11:06:00,
2013-02-10 06:21:00,64.4,56.3,30.06,SE,135,3.7,-999.0,75,-99.99,,,0.00,Acu-Link.com,2013-02-10 11:21:00,
2013-02-10 06:36:00,63.9,56.2,30.05,SSE,157,2.7,-999.0,76,-99.99,,,0.00,Acu-Link.com,2013-02-10 11:36:00,
2013-02-10 06:52:00,64.0,55.9,30.06,ESE,112,3.2,-999.0,75,-99.99,,,0.00,Acu-Link.com,2013-02-10 11:52:00,
2013-02-10 07:07:00,64.0,55.9,30.07,SSE,157,4.2,-999.0,75,-99.99,,,0.00,Acu-Link.com,2013-02-10 12:07:00,
2013-02-10 07:22:00,64.2,56.1,30.07,ESE,112,1.1,-999.0,75,-99.99,,,0.00,Acu-Link.com,2013-02-10 12:22:00,
2013-02-10 07:37:00,64.6,56.1,30.07,SE,135,2.7,-999.0,74,-99.99,,,0.00,Acu-Link.com,2013-02-10 12:37:00,
2013-02-10 07:53:00,66.6,56.9,30.08,ESE,112,4.2,-999.0,71,-99.99,,,0.00,Acu-Link.com,2013-02-10 12:53:00,
2013-02-10 08:08:00,68.4,57.4,30.08,WNW,292,3.7,-999.0,68,-99.99,,,0.00,Acu-Link.com,2013-02-10 13:08:00,
2013-02-10 08:23:00,69.8,58.3,30.08,ESE,112,5.8,-999.0,67,-99.99,,,0.00,Acu-Link.com,2013-02-10 13:23:00,
2013-02-10 08:39:00,71.1,58.7,30.09,SE,135,4.2,-999.0,65,-99.99,,,0.00,Acu-Link.com,2013-02-10 13:39:00,
2013-02-10 08:54:00,72.1,58.3,30.10,SE,135,3.2,-999.0,62,-99.99,,,0.00,Acu-Link.com,2013-02-10 13:54:00,
2013-02-10 09:09:00,72.7,58.5,30.12,SE,135,7.3,-999.0,61,-99.99,,,0.00,Acu-Link.com,2013-02-10 14:09:00,
2013-02-10 09:24:00,74.3,59.0,30.11,SE,135,3.2,-999.0,59,-99.99,,,0.00,Acu-Link.com,2013-02-10 14:24:00,
2013-02-10 09:40:00,74.5,59.2,30.12,East,90,6.3,-999.0,59,-99.99,,,0.00,Acu-Link.com,2013-02-10 14:40:00,
2013-02-10 09:55:00,74.8,58.5,30.12,ESE,112,7.3,-999.0,57,-99.99,,,0.00,Acu-Link.com,2013-02-10 14:55:00,
2013-02-10 10:10:00,75.4,58.6,30.12,SE,135,4.2,-999.0,56,-99.99,,,0.00,Acu-Link.com,2013-02-10 15:10:00,
2013-02-10 10:26:00,76.5,59.1,30.14,NE,45,3.2,-999.0,55,-99.99,,,0.00,Acu-Link.com,2013-02-10 15:26:00,
2013-02-10 10:41:00,75.0,58.2,30.13,ESE,112,10.9,-999.0,56,-99.99,,,0.00,Acu-Link.com,2013-02-10 15:41:00,
2013-02-10 10:56:00,75.6,58.8,30.13,SSE,157,6.3,-999.0,56,-99.99,,,0.00,Acu-Link.com,2013-02-10 15:56:00,
2013-02-10 11:12:00,75.9,58.6,30.12,South,180,4.7,-999.0,55,-99.99,,,0.00,Acu-Link.com,2013-02-10 16:12:00,
2013-02-10 11:27:00,78.1,59.0,30.12,ESE,112,3.7,-999.0,52,-99.99,,,0.00,Acu-Link.com,2013-02-10 16:27:00,
2013-02-10 11:42:00,79.0,59.3,30.11,ESE,112,5.3,-999.0,51,-99.99,,,0.00,Acu-Link.com,2013-02-10 16:42:00,
2013-02-10 11:57:00,78.4,58.8,30.10,ESE,112,5.3,-999.0,51,-99.99,,,0.00,Acu-Link.com,2013-02-10 16:57:00,
2013-02-10 12:12:00,75.4,58.6,30.10,SSE,157,7.3,-999.0,56,-99.99,,,0.00,Acu-Link.com,2013-02-10 17:12:00,
2013-02-10 12:28:00,74.3,58.6,30.09,SE,135,4.7,-999.0,58,-99.99,,,0.00,Acu-Link.com,2013-02-10 17:28:00,
2013-02-10 12:43:00,75.4,59.6,30.08,ESE,112,4.2,-999.0,58,-99.99,,,0.00,Acu-Link.com,2013-02-10 17:43:00,
2013-02-10 12:58:00,74.7,59.4,30.08,East,90,5.8,-999.0,59,-99.99,,,0.00,Acu-Link.com,2013-02-10 17:58:00,
2013-02-10 13:13:00,75.0,59.2,30.08,SE,135,6.3,-999.0,58,-99.99,,,0.00,Acu-Link.com,2013-02-10 18:13:00,
2013-02-10 13:29:00,76.1,59.2,30.06,South,180,7.8,-999.0,56,-99.99,,,0.00,Acu-Link.com,2013-02-10 18:29:00,
2013-02-10 13:44:00,75.9,58.6,30.06,SE,135,7.3,-999.0,55,-99.99,,,0.00,Acu-Link.com,2013-02-10 18:44:00,
2013-02-10 13:59:00,75.9,59.1,30.05,SSE,157,6.3,-999.0,56,-99.99,,,0.00,Acu-Link.com,2013-02-10 18:59:00,
2013-02-10 14:14:00,76.8,58.4,30.04,SE,135,10.4,-999.0,53,-99.99,,,0.00,Acu-Link.com,2013-02-10 19:14:00,
2013-02-10 14:30:00,75.9,58.6,30.05,SE,135,6.3,-999.0,55,-99.99,,,0.00,Acu-Link.com,2013-02-10 19:30:00,
2013-02-10 14:45:00,77.7,59.2,30.04,WNW,292,10.9,-999.0,53,-99.99,,,0.00,Acu-Link.com,2013-02-10 19:45:00,
2013-02-10 15:00:00,76.8,59.4,30.05,ENE,67,4.2,-999.0,55,-99.99,,,0.00,Acu-Link.com,2013-02-10 20:00:00,
2013-02-10 15:15:00,76.3,58.9,30.04,SE,135,4.7,-999.0,55,-99.99,,,0.00,Acu-Link.com,2013-02-10 20:15:00,
2013-02-10 15:31:00,74.8,58.5,30.05,SE,135,5.3,-999.0,57,-99.99,,,0.00,Acu-Link.com,2013-02-10 20:31:00,
2013-02-10 15:46:00,74.1,58.4,30.04,SE,135,5.8,-999.0,58,-99.99,,,0.00,Acu-Link.com,2013-02-10 20:46:00,
2013-02-10 16:01:00,74.7,59.9,30.04,SE,135,5.3,-999.0,60,-99.99,,,0.00,Acu-Link.com,2013-02-10 21:01:00,
2013-02-10 16:16:00,73.8,60.0,30.03,ESE,112,5.3,-999.0,62,-99.99,,,0.00,Acu-Link.com,2013-02-10 21:16:00,
2013-02-10 16:31:00,73.2,59.4,30.03,East,90,4.7,-999.0,62,-99.99,,,0.00,Acu-Link.com,2013-02-10 21:31:00,
2013-02-10 16:47:00,72.3,59.0,30.03,SSE,157,6.8,-999.0,63,-99.99,,,0.00,Acu-Link.com,2013-02-10 21:47:00,
2013-02-10 17:02:00,71.8,59.0,30.03,SSE,157,6.3,-999.0,64,-99.99,,,0.00,Acu-Link.com,2013-02-10 22:02:00,
2013-02-10 17:17:00,71.2,59.2,30.04,SSE,157,5.8,-999.0,66,-99.99,,,0.00,Acu-Link.com,2013-02-10 22:17:00,
2013-02-10 17:33:00,71.4,59.4,30.03,ESE,112,5.8,-999.0,66,-99.99,,,0.00,Acu-Link.com,2013-02-10 22:33:00,
2013-02-10 17:48:00,70.0,58.9,30.04,NNE,22,7.8,-999.0,68,-99.99,,,0.00,Acu-Link.com,2013-02-10 22:48:00,
2013-02-10 18:03:00,68.9,58.3,30.04,ESE,112,3.2,-999.0,69,-99.99,,,0.00,Acu-Link.com,2013-02-10 23:03:00,
2013-02-10 18:18:00,68.4,58.2,30.03,ESE,112,5.3,-999.0,70,-99.99,,,0.00,Acu-Link.com,2013-02-10 23:18:00,
2013-02-10 18:34:00,67.6,57.9,30.04,SSE,157,2.7,-999.0,71,-99.99,,,0.00,Acu-Link.com,2013-02-10 23:34:00,
2013-02-10 18:49:00,67.1,58.1,30.05,ESE,112,2.2,-999.0,73,-99.99,,,0.00,Acu-Link.com,2013-02-10 23:49:00,
2013-02-10 19:04:00,66.4,58.2,30.05,SE,135,2.2,-999.0,75,-99.99,,,0.00,Acu-Link.com,2013-02-11 00:04:00,
2013-02-10 19:19:00,65.7,57.9,30.04,SSE,157,1.7,-999.0,76,-99.99,,,0.00,Acu-Link.com,2013-02-11 00:19:00,
2013-02-10 19:35:00,65.5,58.1,30.06,ESE,112,0.0,-999.0,77,-99.99,,,0.00,Acu-Link.com,2013-02-11 00:35:00,
2013-02-10 19:50:00,64.6,57.9,30.05,SE,135,0.0,-999.0,79,-99.99,,,0.00,Acu-Link.com,2013-02-11 00:50:00,
2013-02-10 20:05:00,64.0,58.0,30.06,SE,135,1.1,-999.0,81,-99.99,,,0.00,Acu-Link.com,2013-02-11 01:05:00,
2013-02-10 20:21:00,63.7,58.4,30.06,SE,135,2.2,-999.0,83,-99.99,,,0.00,Acu-Link.com,2013-02-11 01:21:00,
2013-02-10 20:36:00,63.9,58.6,30.06,South,180,0.0,-999.0,83,-99.99,,,0.00,Acu-Link.com,2013-02-11 01:36:00,
2013-02-10 20:51:00,64.0,58.7,30.06,ENE,67,2.2,-999.0,83,-99.99,,,0.00,Acu-Link.com,2013-02-11 01:51:00,
2013-02-10 21:07:00,64.2,58.9,30.06,ESE,112,0.0,-999.0,83,-99.99,,,0.00,Acu-Link.com,2013-02-11 02:07:00,
2013-02-10 21:22:00,64.2,59.3,30.05,SE,135,2.7,-999.0,84,-99.99,,,0.00,Acu-Link.com,2013-02-11 02:22:00,
2013-02-10 21:37:00,64.0,59.1,30.05,SSE,157,0.0,-999.0,84,-99.99,,,0.00,Acu-Link.com,2013-02-11 02:37:00,
2013-02-10 21:52:00,64.2,59.3,30.06,SSE,157,2.7,-999.0,84,-99.99,,,0.00,Acu-Link.com,2013-02-11 02:52:00,
2013-02-10 22:08:00,64.8,59.5,30.05,ESE,112,1.1,-999.0,83,-99.99,,,0.00,Acu-Link.com,2013-02-11 03:08:00,
2013-02-10 22:23:00,64.0,59.1,30.04,ESE,112,3.2,-999.0,84,-99.99,,,0.00,Acu-Link.com,2013-02-11 03:23:00,
2013-02-10 22:38:00,64.0,59.4,30.04,SE,135,1.1,-999.0,85,-99.99,,,0.00,Acu-Link.com,2013-02-11 03:38:00,
2013-02-10 22:54:00,64.9,60.3,30.05,WNW,292,2.7,-999.0,85,-99.99,,,0.00,Acu-Link.com,2013-02-11 03:54:00,
2013-02-10 23:09:00,64.8,60.2,30.05,SSE,157,1.7,-999.0,85,-99.99,,,0.00,Acu-Link.com,2013-02-11 04:09:00,
2013-02-10 23:24:00,64.6,60.0,30.05,ESE,112,0.0,-999.0,85,-99.99,,,0.00,Acu-Link.com,2013-02-11 04:24:00,
2013-02-10 23:39:00,64.6,60.3,30.05,ESE,112,1.7,-999.0,86,-99.99,,,0.00,Acu-Link.com,2013-02-11 04:39:00,
2013-02-10 23:55:00,64.2,59.9,30.04,SE,135,1.7,-999.0,86,-99.99,,,0.00,Acu-Link.com,2013-02-11 04:55:00,